Location: Praha
(50.0830°N, 14.4670°E)
Time: 17:49:43
(UTC+02:00)

ISS - Pass Details

Date: 24 May 2020
Orbit: 417 x 420 km, 51.6° (Epoch: 26 May)

Event Time Altitude Azimuth Distance (km) Brightness Sun altitude
Rises 21:30:35 0° 271° (W) 2,363 0.9 -5.4°
Reaches altitude 10° 21:32:41 10° 275° (W) 1,500 -0.1 -5.6°
Maximum altitude 21:36:02 65° 358° (N) 466 -3.3 -6.0°
Drops below altitude 10° 21:39:24 10° 81° (E) 1,502 -1.3 -6.4°
Sets 21:41:31 0° 84° (E) 2,367 -0.3 -6.6°
